Hettinger, ND

1:05 AM MDT on August 27, 2016 (GMT -0600)
Hettinger Municipal

Weather History for KHEI - March, 2013

Change the Weather History Date:

Tuesday, March 19, 2013

  Actual Average Record
Temperature  
Mean Temperature 12 °F -  
Max Temperature 22 °F 42 °F 70 °F (1999)
Min Temperature 1 °F 19 °F 1 °F (2013)
Degree Days  
Heating Degree Days 53 34  
Month to date heating degree days 697 714  
Since 1 July heating degree days 6655 7030  
Cooling Degree Days 0 0  
Month to date cooling degree days 0 0  
Year to date cooling degree days 0 0  
Moisture  
Dew Point 9 °F    
Average Humidity 73    
Maximum Humidity 87    
Minimum Humidity 57    
Precipitation  
Precipitation T in 0.03 in 0.10 in (2003)
Month to date precipitation 0.35 0.38  
Year to date precipitation 0.48 1.11  
Sea Level Pressure  
Sea Level Pressure 30.27 in    
Wind  
Wind Speed 12 mph (NW)    
Max Wind Speed 24 mph    
Max Gust Speed 30 mph    
Visibility 10 miles    
Events      
T = Trace of Precipitation, MM = Missing Value Source: NWS Daily Summary

Daily Weather History Graph

Daily Weather History Graph

Search for Another Location

Airport or City:

Trip Planner

Search our weather history database for the weather conditions in past years. The results will help you decide how hot, cold, wet, or windy it might be!

Date:

Astronomy

Mar. 19, 2013 Rise Set
Actual Time 6:55 AM MDT 7:02 PM MDT
Civil Twilight 6:25 AM MDT 7:32 PM MDT
Nautical Twilight 5:50 AM MDT 8:07 PM MDT
Astronomical Twilight 5:14 AM MDT 8:43 PM MDT
Moon 11:29 AM MDT (3/19) 2:08 AM MDT (3/19)
Length of Visible Light 13h 06m
Length of Day
12h 07m
Waxing Crescent, 50% of the Moon is Illuminated
Mar 19
Waxing Crescent
Mar 27
Full
Apr 2
Last Quarter
Apr 10
New
Apr 18
First Quarter

Hourly Weather History & Observations

Time (MDT) Temp. Windchill Dew Point Humidity Pressure Visibility Wind Dir Wind Speed Gust Speed Precip Events Conditions
12:53 AM 15.1 °F - 6.1 °F 68% 30.04 in 10.0 mi Calm Calm - N/A   Clear
1:53 AM 12.9 °F - 6.1 °F 74% 30.04 in 10.0 mi Calm Calm - N/A   Partly Cloudy
2:53 AM 8.1 °F - 3.9 °F 83% 30.05 in 10.0 mi Calm Calm - N/A   Clear
3:53 AM 10.0 °F 0.4 °F 5.0 °F 80% 30.06 in 10.0 mi WNW 5.8 mph - N/A   Mostly Cloudy
4:53 AM 12.0 °F 1.5 °F 8.1 °F 84% 30.08 in 10.0 mi WNW 6.9 mph - N/A   Clear
5:53 AM 14.0 °F 2.9 °F 9.0 °F 80% 30.12 in 10.0 mi WNW 8.1 mph - N/A   Clear
6:50 AM 17.6 °F 4.3 °F 14.0 °F 86% 30.02 in 10.0 mi NW 12.7 mph - N/A   Mostly Cloudy
6:53 AM 19.0 °F 6.1 °F 14.0 °F 81% 30.16 in 10.0 mi NW 12.7 mph - N/A   Mostly Cloudy
7:53 AM 21.0 °F 6.2 °F 16.0 °F 81% 30.20 in 10.0 mi NW 18.4 mph 25.3 mph N/A   Overcast
8:02 AM 21.2 °F 6.4 °F 15.8 °F 80% 30.06 in 10.0 mi NW 18.4 mph 28.8 mph N/A   Overcast
8:53 AM 21.0 °F 6.6 °F 15.1 °F 78% 30.24 in 10.0 mi NW 17.3 mph 25.3 mph N/A   Overcast
9:53 AM 18.0 °F 0.9 °F 10.9 °F 74% 30.28 in 10.0 mi NW 21.9 mph 28.8 mph N/A   Overcast
10:41 AM 19.4 °F 3.6 °F 12.2 °F 74% 30.16 in 10.0 mi NW 19.6 mph 27.6 mph N/A   Mostly Cloudy
10:53 AM 19.9 °F 4.3 °F 12.0 °F 71% 30.31 in 10.0 mi NW 19.6 mph 25.3 mph N/A   Mostly Cloudy
11:04 AM 21.2 °F 6.0 °F 12.2 °F 68% 30.17 in 10.0 mi NW 19.6 mph 25.3 mph N/A   Scattered Clouds
12:05 PM 19.4 °F 3.2 °F 10.4 °F 68% 30.20 in 10.0 mi NW 20.7 mph 25.3 mph N/A   Mostly Cloudy
12:53 PM 21.0 °F 7.1 °F 10.9 °F 65% 30.36 in 9.0 mi NW 16.1 mph 25.3 mph 0.00 in   Overcast
1:53 PM 21.0 °F 7.1 °F 10.0 °F 63% 30.39 in 10.0 mi NW 16.1 mph 26.5 mph N/A   Mostly Cloudy
2:28 PM 21.2 °F 5.6 °F 10.4 °F 63% 30.25 in 10.0 mi NW 20.7 mph 28.8 mph N/A   Scattered Clouds
2:39 PM 21.2 °F 5.6 °F 10.4 °F 63% 30.25 in 10.0 mi NW 20.7 mph 29.9 mph N/A   Mostly Cloudy
2:53 PM 21.0 °F 5.0 °F 10.0 °F 63% 30.41 in 10.0 mi WNW 21.9 mph 27.6 mph N/A   Mostly Cloudy
3:26 PM 21.2 °F 6.4 °F 10.4 °F 63% 30.26 in 10.0 mi NW 18.4 mph 27.6 mph N/A   Scattered Clouds
3:53 PM 21.9 °F 6.9 °F 10.0 °F 60% 30.42 in 10.0 mi NW 19.6 mph 26.5 mph N/A   Partly Cloudy
4:53 PM 21.9 °F 6.2 °F 9.0 °F 58% 30.43 in 10.0 mi WNW 21.9 mph 26.5 mph N/A   Clear
5:53 PM 21.0 °F 6.2 °F 8.1 °F 57% 30.44 in 10.0 mi NW 18.4 mph - N/A   Clear
6:53 PM 18.0 °F 5.4 °F 8.1 °F 65% 30.44 in 10.0 mi WNW 11.5 mph - N/A   Clear
7:53 PM 10.0 °F -3.7 °F 3.9 °F 76% 30.47 in 10.0 mi WNW 10.4 mph - N/A   Clear
8:53 PM 7.0 °F -3.3 °F 1.9 °F 80% 30.48 in 10.0 mi NNW 5.8 mph - N/A   Clear
9:53 PM 3.9 °F -3.4 °F -0.0 °F 84% 30.50 in 10.0 mi NW 3.5 mph - N/A   Clear
10:53 PM 3.9 °F - -0.9 °F 80% 30.49 in 10.0 mi Calm Calm - N/A   Clear
11:53 PM 1.9 °F - -2.0 °F 83% 30.50 in 10.0 mi Calm Calm - N/A   Clear